Regional Weather Roundup
Issued by NWS

Home | Current Version | Previous Version | Graphics & Text | Print | Product List | Glossary On
Versions: 1 2 3 4 5 6 7 8 9 10 11 12 13 14 15 16 17 18 19 20 21 22 23 24 25 26 27 28 29 30 31 32 33 34 35 36 37 38 39 40 41 42 43 44 45 46 47 48 49 50
000
ASUS44 KMEG 250410
RWRTN
TENNESSEE HOURLY STATE WEATHER ROUNDUP
NATIONAL WEATHER SERVICE MEMPHIS TN
1100 PM CDT THU JUL 24 2014

TNZ002-004-019-021-049-052-054-088>092-250500-
WEST TENNESSEE

CITY           SKY/WX    TMP DP  RH WIND       PRES   REMARKS
MEMPHIS INTL   PTCLDY    73  61  65 N7        30.05R
NWS MEMPHIS      N/A     67 N/A N/A MISG        N/A
JACKSON        CLEAR     66  61  84 CALM      30.04S
DYERSBURG      CLEAR     68  54  60 CALM      30.05F
UNION CITY     CLEAR     64  61  88 NE3       30.04F
PARIS          CLEAR     62  57  83 CALM      30.06S
LEXINGTON      CLEAR     66  63  88 N5        30.03S
SAVANNAH       CLEAR     65  65 100 CALM      30.03S
$$

TNZ008-025-027-028-033-062-065-066-250500-
NORTH MIDDLE TENNESSEE

CITY           SKY/WX    TMP DP  RH WIND       PRES   REMARKS
NASHVILLE      CLEAR     71  59  65 NE8       30.04R
DICKSON        CLEAR     66  55  68 N6        30.05R
PORTLAND       CLEAR     66  55  68 CALM      30.05R
CLARKSVILLE    CLEAR     66  55  67 N6        30.05R
LEBANON        CLEAR     69  60  73 N3        30.03R
SMYRNA         CLEAR     72  62  70 NE7       30.04R
MURFREESBORO   CLEAR     70  63  78 NE3       30.03R
COOKEVILLE     CLEAR     64  63  94 CALM      30.05R
LIVINGSTON       N/A     64  61  90 E3        30.07S
GALLATIN       CLEAR     69  60  73 NE3       30.06R
CROSSVILLE     CLEAR     64  61  90 NE5       30.09S
$$

TNZ061-075-076-078-094-096-097-250500-
SOUTH MIDDLE TENNESSEE

CITY           SKY/WX    TMP DP  RH WIND       PRES   REMARKS
LEWISBURG      CLEAR     66  62  87 CALM      30.02S
FAYETTEVILLE   CLEAR     68  63  83 N12       30.02F
TULLAHOMA      CLEAR     66  63  88 N3        30.04F
WINCHESTER     CLEAR     66  66 100 CALM      30.04S
MCMINNVILLE    CLEAR     66  66 100 NE5       30.05R
COLUMBIA       CLEAR     66  64  94 CALM      30.02S
SHELBYVILLE    CLEAR     66  66 100 NE5       30.03F
$$

TNZ017-018-042-046-047-250500-
NORTHEAST TENNESSEE

CITY           SKY/WX    TMP DP  RH WIND       PRES   REMARKS
TRI CITIES     CLOUDY    67  60  78 CALM      30.06R
ELIZABETHTON   CLOUDY    64  63  94 CALM      30.04F
$$

TNZ012-013-036-069-073-074-250500-
CENTRAL EAST TENNESSEE

CITY           SKY/WX    TMP DP  RH WIND       PRES   REMARKS
KNOXVILLE      CLEAR     66  64  93 NE3       30.03S
OAK RIDGE      CLEAR     67  62  84 CALM      30.06S
GATLINBURG     CLOUDY    70  63  78 CALM      30.03F
MORRISTOWN     PTCLDY    64  63  94 NE5       30.07R
$$

TNZ083-085-099-250500-
SOUTHEAST TENNESSEE

CITY           SKY/WX    TMP DP  RH WIND       PRES   REMARKS
CHATTANOOGA    PTCLDY    75  64  68 N12       30.02R
$$

SKY/WX REPORTED AS FAIR MEANS FEW OR NO CLOUDS BELOW
12 THOUSAND FEET.




USA.gov is the U.S. government's official web portal to all federal, state and local government web resources and services.